GW3299 Weather Reports


Display with metric or nautical units.
time (UTC)temp
F
wind
direction
speed
MPH
gust
MPH
rain 1hr
in
rain 24hr
in
rain mn
in
humidity
%
barometer
mb
20260504173022 65 254 0.0 0.0 0.00 0.00 0.00 74 1032.2
20260504172519 66 254 0.0 0.0 0.00 0.00 0.00 73 1032.5
20260504172015 66 255 0.0 0.0 0.00 0.00 0.00 73 1032.5
20260504171512 66 255 0.0 0.0 0.00 0.00 0.00 73 1032.2
20260504171009 66 254 0.0 0.0 0.00 0.00 0.00 74 1032.3
20260504170505 66 254 0.0 0.0 0.00 0.00 0.00 72 1032.3
20260504160425 69 275 0.0 1.0 0.00 0.00 0.00 64 1032.6
20260504150848 72 250 1.0 1.0 0.00 0.00 0.00 58 1032.7
20260504150345 73 305 4.0 4.0 0.00 0.00 0.00 57 1032.6
20260504141316 75 324 4.0 4.0 0.00 0.00 0.00 54 1032.6
20260504140812 75 18 4.0 4.0 0.00 0.00 0.00 54 1032.5
20260504140308 75 357 5.0 7.0 0.00 0.00 0.00 52 1032.7
20260504130736 74 20 4.0 4.0 0.00 0.00 0.00 56 1032.9
20260504130232 75 26 3.0 3.0 0.00 0.00 0.00 55 1032.8
20260504120156 73 330 2.0 3.0 0.00 0.00 0.00 54 1033.1
20260504110623 75 1 4.0 6.0 0.00 0.00 0.00 56 1034.5
20260504110120 76 351 5.0 7.0 0.00 0.00 0.00 55 1034.5
20260504100545 72 348 4.0 4.0 0.00 0.00 0.00 62 1035.7
20260504081939 70 328 3.0 4.0 0.00 0.00 0.00 68 1037.0
20260504081436 71 344 4.0 6.0 0.00 0.00 0.00 66 1037.1
20260504080932 70 12 3.0 3.0 0.00 0.00 0.00 69 1037.3
20260504080429 69 336 3.0 6.0 0.00 0.00 0.00 69 1037.1
20260504070356 67 29 1.0 1.0 0.00 0.00 0.00 74 1037.1
20260504050744 57 221 0.0 0.0 0.00 0.00 0.00 83 1036.0
20260504050241 55 210 0.0 0.0 0.00 0.00 0.00 86 1035.8
20260504045738 55 211 0.0 0.0 0.00 0.00 0.00 88 1035.8
20260504045233 55 216 0.0 0.0 0.00 0.00 0.00 88 1036.2
20260504044731 54 218 0.0 0.0 0.00 0.00 0.00 89 1035.8
20260504044229 54 225 0.0 0.0 0.00 0.00 0.00 90 1036.0
20260504043725 54 225 0.0 0.0 0.00 0.00 0.00 90 1036.0
20260504043222 54 224 0.0 0.0 0.00 0.00 0.00 90 1035.9
20260504042720 54 225 0.0 0.0 0.00 0.00 0.00 90 1035.7
20260504042216 54 224 0.0 0.0 0.00 0.00 0.00 89 1035.7
20260504041712 54 223 0.0 0.0 0.00 0.00 0.00 90 1035.6
20260504041208 54 226 0.0 0.0 0.00 0.00 0.00 90 1035.7
20260504040705 54 228 0.0 0.0 0.00 0.00 0.00 90 1035.7
20260504040202 54 223 0.0 0.0 0.00 0.00 0.00 90 1035.8
20260504035658 54 227 0.0 0.0 0.00 0.00 0.00 90 1035.7
20260504035156 54 228 0.0 0.0 0.00 0.00 0.00 90 1035.6
20260504034653 54 226 0.0 0.0 0.00 0.00 0.00 90 1035.6
20260504034150 54 222 0.0 0.0 0.00 0.00 0.00 90 1035.8
20260504033648 54 223 0.0 0.0 0.00 0.00 0.00 89 1035.6
20260504033145 55 220 0.0 0.0 0.00 0.00 0.00 89 1035.6
20260504032641 55 230 0.0 0.0 0.00 0.00 0.00 89 1035.3
20260504032138 55 234 0.0 0.0 0.00 0.00 0.00 89 1035.6
20260504031636 55 224 0.0 0.0 0.00 0.00 0.00 89 1035.5
20260504031132 55 224 0.0 0.0 0.00 0.00 0.00 88 1035.5
20260504030629 55 220 0.0 0.0 0.00 0.00 0.00 88 1035.3
20260504030125 55 222 0.0 0.0 0.00 0.00 0.00 88 1035.3
20260504025622 55 238 0.0 0.0 0.00 0.00 0.00 89 1035.3
20260504025119 55 206 0.0 0.0 0.00 0.00 0.00 89 1035.2
20260504024617 55 235 0.0 0.0 0.00 0.00 0.00 89 1035.2
20260504024113 55 222 0.0 0.0 0.00 0.00 0.00 89 1035.1
20260504023610 55 225 0.0 0.0 0.00 0.00 0.00 89 1035.2
20260504023105 55 218 0.0 0.0 0.00 0.00 0.00 89 1035.1
20260504022602 55 223 0.0 0.0 0.00 0.00 0.00 89 1035.2
20260504022058 55 230 0.0 0.0 0.00 0.00 0.00 89 1035.2
20260504021556 55 213 0.0 0.0 0.00 0.00 0.00 89 1035.1
20260504021052 55 216 0.0 0.0 0.00 0.00 0.00 88 1035.2
20260504020549 55 223 0.0 0.0 0.00 0.00 0.00 88 1035.5
20260504020046 55 228 0.0 0.0 0.00 0.00 0.00 88 1035.3
20260504015542 55 232 0.0 0.0 0.00 0.00 0.00 88 1035.3
20260504015038 55 222 0.0 0.0 0.00 0.00 0.00 88 1035.5
20260504014535 55 211 0.0 0.0 0.00 0.00 0.00 88 1035.5
20260504014032 55 236 0.0 0.0 0.00 0.00 0.00 88 1035.3
20260504013529 55 226 0.0 0.0 0.00 0.00 0.00 88 1035.7
20260504013021 55 237 0.0 0.0 0.00 0.00 0.00 88 1035.5
20260504012518 55 214 0.0 0.0 0.00 0.00 0.00 88 1035.5
20260504012016 55 225 0.0 0.0 0.00 0.00 0.00 88 1035.7
20260504011512 55 206 0.0 0.0 0.00 0.00 0.00 87 1035.7
20260504011008 55 217 0.0 1.0 0.00 0.00 0.00 87 1035.6
20260504010504 55 217 0.0 0.0 0.00 0.00 0.00 88 1035.7
20260504010000 55 234 0.0 0.0 0.00 0.00 0.00 87 1035.6
20260504005457 55 229 0.0 0.0 0.00 0.00 0.00 88 1035.6
20260504004954 55 224 0.0 0.0 0.00 0.00 0.00 87 1035.5
20260504004452 55 222 0.0 0.0 0.00 0.00 0.00 87 1035.6
20260504003949 55 212 0.0 0.0 0.00 0.00 0.00 87 1035.6
20260504003445 55 218 0.0 1.0 0.00 0.00 0.00 87 1035.7
20260504002942 55 221 0.0 0.0 0.00 0.00 0.00 87 1035.7
20260504002439 55 230 0.0 0.0 0.00 0.00 0.00 87 1035.8
20260504001936 55 223 0.0 0.0 0.00 0.00 0.00 87 1035.9
20260504001434 55 225 0.0 1.0 0.00 0.00 0.00 87 1036.2
20260504000930 56 220 0.0 1.0 0.00 0.00 0.00 87 1036.2
20260504000427 56 225 0.0 0.0 0.00 0.00 0.00 87 1036.0
20260503235925 56 221 0.0 0.0 0.00 0.00 0.00 87 1036.0
20260503235422 56 203 0.0 0.0 0.00 0.00 0.00 87 1036.0
20260503234920 56 203 0.0 0.0 0.00 0.00 0.00 87 1036.3
20260503234417 56 202 0.0 0.0 0.00 0.00 0.00 86 1036.3
20260503233915 56 202 0.0 0.0 0.00 0.00 0.00 85 1036.2
20260503233411 56 202 0.0 0.0 0.00 0.00 0.00 84 1036.3
20260503232907 57 202 0.0 0.0 0.00 0.00 0.00 85 1036.3
20260503232405 56 232 0.0 0.0 0.00 0.00 0.00 86 1036.4
20260503231903 56 232 0.0 0.0 0.00 0.00 0.00 86 1036.4
20260503231400 57 232 0.0 0.0 0.00 0.00 0.00 86 1036.5
20260503230855 56 232 0.0 0.0 0.00 0.00 0.00 86 1036.3
20260503230352 57 232 0.0 0.0 0.00 0.00 0.00 85 1036.4
20260503225850 57 231 0.0 0.0 0.00 0.00 0.00 85 1036.6
20260503225346 57 231 0.0 0.0 0.00 0.00 0.00 85 1036.6
20260503224842 57 230 0.0 0.0 0.00 0.00 0.00 84 1036.5
20260503224340 57 232 0.0 0.0 0.00 0.00 0.00 84 1036.6
20260503223837 57 230 0.0 0.0 0.00 0.00 0.00 84 1036.7
20260503223335 57 232 0.0 0.0 0.00 0.00 0.00 83 1036.6
20260503222830 57 236 0.0 0.0 0.00 0.00 0.00 84 1036.6
20260503222329 57 228 0.0 0.0 0.00 0.00 0.00 83 1036.6
20260503221827 58 226 0.0 0.0 0.00 0.00 0.00 83 1036.7
20260503221325 58 238 0.0 0.0 0.00 0.00 0.00 83 1036.5
20260503220815 57 241 0.0 0.0 0.00 0.00 0.00 83 1036.7
20260503220312 57 224 0.0 0.0 0.00 0.00 0.00 83 1036.6
20260503215809 57 223 0.0 0.0 0.00 0.00 0.00 83 1036.7
20260503215306 58 223 0.0 0.0 0.00 0.00 0.00 83 1036.7
20260503214804 58 222 0.0 0.0 0.00 0.00 0.00 83 1036.9
20260503214301 58 224 0.0 0.0 0.00 0.00 0.00 83 1037.0
20260503213758 58 227 0.0 0.0 0.00 0.00 0.00 82 1037.1
20260503213255 58 233 0.0 0.0 0.00 0.00 0.00 82 1037.1
20260503212752 58 232 0.0 0.0 0.00 0.00 0.00 82 1037.1
20260503212250 58 232 0.0 0.0 0.00 0.00 0.00 82 1037.1
20260503211747 58 232 0.0 0.0 0.00 0.00 0.00 82 1037.2
20260503211243 58 232 0.0 0.0 0.00 0.00 0.00 81 1037.3
20260503210739 59 232 0.0 0.0 0.00 0.00 0.00 81 1037.3
20260503210237 58 233 0.0 0.0 0.00 0.00 0.00 82 1037.3
20260503205732 59 230 0.0 0.0 0.00 0.00 0.00 81 1037.2
20260503205228 59 230 0.0 0.0 0.00 0.00 0.00 81 1037.3
20260503204724 59 246 0.0 0.0 0.00 0.00 0.00 80 1037.4
20260503204223 59 220 0.0 0.0 0.00 0.00 0.00 81 1037.4
20260503203719 59 221 0.0 0.0 0.00 0.00 0.00 80 1037.4
20260503203217 59 221 0.0 0.0 0.00 0.00 0.00 80 1037.4
20260503202714 59 223 0.0 0.0 0.00 0.00 0.00 80 1037.4
20260503202212 59 225 0.0 0.0 0.00 0.00 0.00 79 1037.6
20260503201709 59 225 0.0 0.0 0.00 0.00 0.00 79 1037.4
20260503201207 59 218 0.0 0.0 0.00 0.00 0.00 79 1037.7
20260503200703 59 218 0.0 0.0 0.00 0.00 0.00 79 1037.6
20260503200159 59 230 0.0 0.0 0.00 0.00 0.00 79 1037.6
20260503195656 59 232 0.0 0.0 0.00 0.00 0.00 78 1037.4
20260503195153 59 234 0.0 0.0 0.00 0.00 0.00 78 1037.6
20260503194650 59 234 0.0 0.0 0.00 0.00 0.00 78 1037.4
20260503194146 59 234 0.0 0.0 0.00 0.00 0.00 78 1037.7
20260503193643 59 234 0.0 0.0 0.00 0.00 0.00 79 1037.6
20260503193138 59 234 0.0 0.0 0.00 0.00 0.00 80 1037.7
20260503192634 59 235 0.0 0.0 0.00 0.00 0.00 79 1037.6
20260503192130 59 235 0.0 0.0 0.00 0.00 0.00 80 1037.4
20260503191627 60 234 0.0 0.0 0.00 0.00 0.00 79 1037.4
20260503191124 60 234 0.0 0.0 0.00 0.00 0.00 78 1037.7
20260503190621 60 234 0.0 0.0 0.00 0.00 0.00 79 1037.6
20260503190118 60 234 0.0 0.0 0.00 0.00 0.00 78 1037.6
20260503185614 61 234 0.0 0.0 0.00 0.00 0.00 77 1037.4
20260503185115 61 234 0.0 0.0 0.00 0.00 0.00 77 1037.4
20260503184610 60 234 0.0 0.0 0.00 0.00 0.00 79 1037.4
20260503184107 60 234 0.0 0.0 0.00 0.00 0.00 78 1037.4
20260503183603 60 234 0.0 0.0 0.00 0.00 0.00 78 1037.2
20260503183101 61 234 0.0 0.0 0.00 0.00 0.00 77 1037.2
20260503182559 61 234 0.0 0.0 0.00 0.00 0.00 76 1037.2
20260503182057 61 234 0.0 0.0 0.00 0.00 0.00 75 1037.2
20260503181554 62 234 0.0 0.0 0.00 0.00 0.00 73 1037.2
20260503181050 63 234 0.0 0.0 0.00 0.00 0.00 70 1037.3
20260503180547 63 235 0.0 0.0 0.00 0.00 0.00 71 1037.3
20260503180045 63 235 0.0 0.0 0.00 0.00 0.00 71 1037.3
20260503175542 63 235 0.0 0.0 0.00 0.00 0.00 72 1037.2
20260503175039 63 235 0.0 0.0 0.00 0.00 0.00 70 1037.1
20260503174536 64 235 0.0 0.0 0.00 0.00 0.00 68 1037.2
20260503174032 64 233 0.0 0.0 0.00 0.00 0.00 68 1037.1
20260503173527 65 234 0.0 0.0 0.00 0.00 0.00 66 1037.0